Regional Weather Roundup
Issued by NWS New Orleans/Baton Rouge, LA

Current Version | Previous Version | Text Only | Print | Product List | Glossary On
Versions: 1 2 3 4 5 6 7 8 9 10 11 12 13 14 15 16 17 18 19 20 21 22 23 24 25 26 27 28 29 30 31 32 33 34 35 36 37 38 39 40 41 42 43 44 45 46 47 48 49 50
422
ASUS44 KLIX 121812
RWRLIX
NEW ORLEANS REGIONAL WEATHER ROUNDUP
NATIONAL WEATHER SERVICE NEW ORLEANS LA
1200 PM CST TUE DEC 12 2017

NOTE: "FAIR" INDICATES FEW OR NO CLOUDS BELOW 12,000 FEET WITH NO
      SIGNIFICANT WEATHER AND/OR OBSTRUCTIONS TO VISIBILITY.
      SKY/WX - SKY CONDITION AND SIGNIFICANT WEATHER.
      TMP - AIR TEMPERATURE.     DP    - DEWPOINT TEMPERATURE.
      RH  - RELATIVE HUMIDITY.   PRES  - PRESSURE.
      HI  - HEAT INDEX.          WCI   - WIND CHILL INDEX.

*  THESE STATIONS ARE NOT NWS OR FAA STATIONS AND ARE NOT UNDER
   NWS QUALITY CONTROL.

LAZ038-040-048-061>063-065>067-069-121900-
SOUTHEAST LOUISIANA

CITY           SKY/WX    TMP DP  RH WIND       PRES   REMARKS
N.O. INTL ARPT SUNNY     60  37  42 N13       30.17F
6HR MIN TEMP:  51; 6HR MAX TEMP:  60;

N.O. LAKEFRONT SUNNY     58  45  62 NW10      30.17F
6HR MIN TEMP:  53; 6HR MAX TEMP:  61;

N.O. DOWNTOWN*   N/A     59  35  40 VRB5      30.17F
6HR MIN TEMP:  52; 6HR MAX TEMP:  59;

RESERVE*         N/A     62  33  32 N12G17    30.17F
6HR MIN TEMP:  51; 6HR MAX TEMP:  63;

SLIDELL        SUNNY     61  33  35 N17G24    30.14F
6HR MIN TEMP:  47; 6HR MAX TEMP:  61;

BATON ROUGE    SUNNY     59  32  36 NW12      30.19F
6HR MIN TEMP:  45; 6HR MAX TEMP:  60;

BOOTHVILLE     SUNNY     59  38  45 N12G20    30.15F
6HR MIN TEMP:  56; 6HR MAX TEMP:  60;

BELLE CHASSE   SUNNY     60  37  42 N10G21    30.15F
6HR MIN TEMP:  47; 6HR MAX TEMP:  60;

BOGALUSA*      NOT AVBL
GALLIANO*      CLEAR     60  31  33 N13G20    30.16F
6HR MIN TEMP:  51; 6HR MAX TEMP:  61;

NEW ROADS*       N/A     58  32  37 N12       30.20F
6HR MIN TEMP:  43; 6HR MAX TEMP:  59;

GONZALES*        N/A     60  33  35 N12       30.18F
6HR MIN TEMP:  47; 6HR MAX TEMP:  60;

HAMMOND*       SUNNY     59  34  38 N12G18    30.17F
HOUMA*         NOT AVBL
PORT FOURCHON* CLEAR     59  36  41 N15       30.17F

$$

MSZ070-080>082-121900-
SOUTHERN MISSISSIPPI

CITY           SKY/WX    TMP DP  RH WIND       PRES   REMARKS
MCCOMB         SUNNY     58  31  35 NW10G18   30.17F
6HR MIN TEMP:  43; 6HR MAX TEMP:  58;

GULFPORT       SUNNY     61  34  36 N17G25    30.11F
6HR MIN TEMP:  46; 6HR MAX TEMP:  61;

BILOXI         SUNNY     60  34  37 N16       30.11F
6HR MIN TEMP:  47; 6HR MAX TEMP:  61;

PASCAGOULA     SUNNY     61  32  33 N14G23    30.10F
6HR MIN TEMP:  45; 6HR MAX TEMP:  62;

STENNIS ARPT*  SUNNY     61  34  36 N13G22    30.14

$$

COASTAL OBSERVATIONS
LAKE AND NEARSHORE STATIONS

STATION/POSITION TIME  TEMP    WIND        PRES    WAVE
                       AIR SEA DIR/SP/G            HT/PER
                 (UTC) (F)     (DEG/KT/KT) (MB)    (FT/S)
PASCAGOULA       1748   60     360/ 14/ 18 1019.0
WAVELAND YACHT   1748   57 54  350/ 19/ 21 1020.2
GRAND ISLE       1748   58 57   10/ 11/ 13 1021.4
SOUTHWEST PASS   1748   57 57   10/ 18/ 20 1021.2
NEW CANAL        1748   55 55  350/  9/ 12 1021.4
SHELL BEACH      1748   54 54  350/ 10/ 13 1021.0

OFFSHORE STATIONS

STATION/POSITION TIME  TEMP    WIND        PRES    WAVE
                       AIR SEA DIR/SP/G            HT/PER
                 (UTC) (F)     (DEG/KT/KT) (MB)    (FT/S)
64 S DAUPHIN ISL 1750   61 74  350/ 17/ 23 1019.4    6/ 6

$$





USA.gov is the U.S. government's official web portal to all federal, state and local government web resources and services.